User: anonymous   Login
Location: Unspecified
(0.0000°N, 0.0000°E)
Time: 06:38:23
(UTC+00:00)
Language:

HO-68 - Orbit

View from above orbital plane
View from above orbital plane
View from above satellite
View from above satellite

Ground track
Ground track

The orbit data is extracted from the following two-line orbital elements,

1 36122U 09072B   25143.44221858 -.00000016  00000-0  74034-4 0  9991
2 36122 100.3482  99.5810 0008043  47.9859 312.1937 13.16424527741725
Epoch (UTC): 23 May 2025 10:36:47
Eccentricity: 0.0008043
inclination: 100.3482°
perigee height: 1192 km
apogee height: 1204 km
right ascension of ascending node: 99.5810°
argument of perigee: 47.9859°
revolutions per day: 13.16424527
mean anomaly at epoch: 312.1937°
orbit number at epoch: 74172

The dashed part of the orbit path shows where the satellite is in the earth's shadow,  

DLR